Regional Weather Roundup
Issued by NWS

Home | Current Version | Previous Version | Text Only | Print | Product List | Glossary On
Versions: 1 2 3 4 5 6 7 8 9 10 11 12 13 14 15 16 17 18 19 20 21 22 23 24 25 26 27 28 29 30 31 32 33 34 35 36 37 38 39 40 41 42 43 44 45 46 47 48 49 50
000
ASCA42 TJSJ 050510
RWRPR
PUERTO RICO/U.S. VIRGIN ISLANDS HOURLY WEATHER ROUNDUP
NATIONAL WEATHER SERVICE SAN JUAN PR
100 AM AST MON DEC 05 2016

PRZ001>002-007>008-010-050600-
PUERTO RICO

CITY           SKY/WX    TMP DP  RH WIND       PRES   REMARKS
SAN JUAN LMM   PTCLDY    79  73  83 CALM      29.98F
CEIBA          CLOUDY    75  75 100 NW3       30.00S
$$

VIZ001>002-050600-
U.S. VIRGIN ISLANDS

CITY           SKY/WX    TMP DP  RH WIND       PRES   REMARKS
CHARLOTTE AMA  CLEAR     79  75  89 CALM      29.97F
CHRISTIANSTED  MOCLDY    75  73  94 N5        29.98S
$$

HOURLY WEATHER ROUNDUP FOR THE NEWS MEDIA

CITY           SKY/WX    TMP DP  RH WIND       PRES   REMARKS
ORLANDO        MOCLDY    66  64  93 SE5       30.05F
NEW YORK       CLOUDY    41  24  51 E6        30.14F
NEWARK         CLOUDY    42  25  50 E9        30.11F
CHICAGO        CLOUDY    32  30  92 W13G21    29.91R FOG     WCI  22
HARTFORD       CLOUDY    27  21  78 CALM      30.16F
BOSTON         PTCLDY    32  21  64 W5        30.18S WCI  27
DALLAS         CLOUDY    49  42  77 NE3       30.06R
PHILADELPHIA   CLOUDY    44  31  60 S9        30.12F
LOS ANGELES    PTCLDY    59  57  93 VRB3      29.99S
WASHINGTON DC  LGT RAIN  38  36  92 S8        30.06F FOG     WCI  32


USA.gov is the U.S. government's official web portal to all federal, state and local government web resources and services.